Regional Weather Roundup
Issued by NWS

Home | Current Version | Previous Version | Graphics & Text | Print | Product List | Glossary On
Versions: 1 2 3 4 5 6 7 8 9 10 11 12 13 14 15 16 17 18 19 20 21 22 23 24 25 26 27 28 29 30 31 32 33 34 35 36 37 38 39 40 41 42 43 44 45 46 47 48 49 50
000
ASUS44 KMEG 230400
RWRTN
TENNESSEE HOURLY STATE WEATHER ROUNDUP
NATIONAL WEATHER SERVICE MEMPHIS TN
1100 PM CDT FRI MAY 22 2015

TNZ002-004-019-021-049-052-054-088>092-230500-
WEST TENNESSEE

CITY           SKY/WX    TMP DP  RH WIND       PRES   REMARKS
MEMPHIS INTL   FAIR      65  49  56 E8        30.24S
NWS MEMPHIS      N/A     58 N/A N/A MISG        N/A
JACKSON        CLEAR     53  50  89 CALM      30.26F
DYERSBURG      PTCLDY    59  43  55 E5        30.26F
PARIS          CLEAR     54  52  94 NE3       30.27F
LEXINGTON      CLEAR     52  52 100 CALM      30.26F
$$

TNZ008-025-027-028-033-062-065-066-230500-
NORTH MIDDLE TENNESSEE

CITY           SKY/WX    TMP DP  RH WIND       PRES   REMARKS
NASHVILLE      MOCLDY    63  48  58 NE3       30.28S
CLARKSVILLE    MOCLDY    60  50  69 CALM      30.28R
COOKEVILLE     CLEAR     52  48  87 CALM      30.30R
CROSSVILLE     MOCLDY    54  46  74 CALM      30.32S
$$

TNZ061-075-076-078-094-096-097-230500-
SOUTH MIDDLE TENNESSEE

CITY           SKY/WX    TMP DP  RH WIND       PRES   REMARKS
FAYETTEVILLE   CLEAR    N/A N/A N/A MISG      30.27S
TULLAHOMA      CLEAR     54  45  71 CALM      30.29S
WINCHESTER     CLEAR     54  50  87 CALM      30.28F
MCMINNVILLE    CLEAR     52  48  87 CALM      30.29S
COLUMBIA       CLEAR     52  50  93 CALM      30.26R
SHELBYVILLE    CLEAR     55  48  76 E3        30.28S
$$

TNZ017-018-042-046-047-230500-
NORTHEAST TENNESSEE

CITY           SKY/WX    TMP DP  RH WIND       PRES   REMARKS
TRI CITIES     PTCLDY    50  45  83 CALM      30.32S
ELIZABETHTON   CLEAR     48  43  81 CALM      30.34R
$$

TNZ012-013-036-069-073-074-230500-
CENTRAL EAST TENNESSEE

CITY           SKY/WX    TMP DP  RH WIND       PRES   REMARKS
KNOXVILLE      MOCLDY    58  45  62 E5        30.29S
OAK RIDGE      PTCLDY    55  47  74 CALM      30.32S
GATLINBURG     CLEAR     52  46  82 CALM      30.30F
$$

TNZ083-085-099-230500-
SOUTHEAST TENNESSEE

CITY           SKY/WX    TMP DP  RH WIND       PRES   REMARKS
CHATTANOOGA    PTCLDY    57  50  77 CALM      30.27F
$$

SKY/WX REPORTED AS FAIR MEANS FEW OR NO CLOUDS BELOW
12 THOUSAND FEET.



USA.gov is the U.S. government's official web portal to all federal, state and local government web resources and services.